sat.trackr.live / text

‹ back to catalog

STARLINK-35673

NORAD 66492 · 2025-263H

PAYLOAD ACTIVE UNKNOWN

§ Identity

Operator
Country
US
Launch date
2025-11-15
Launch site
AFETR
Launch vehicle
Mass (kg)
RCS (m²)

Purposes: comms

External: N2YO · Heavens-Above · Gunter

§ Orbital elements

Epoch: 2026-09-20T21:29:47.919264Z

Period
94.27 min
Inclination
43.0031°
Eccentricity
0.0003065
Mean motion
15.27574118 rev/d
Perigee alt
481.0 km
Apogee alt
485.2 km
Semi-major
6,861.2 km
B*
5.5019e-4
RAAN
328.2376°
Arg perigee
263.5155°
Mean anomaly
96.5348°
Rev number
4,875

§ Raw data

STARLINK-356731 66492U 25263H   26263.89569351  .00014907  00000+0  55019-3 0  99932 66492  43.0031 328.2376 0003065 263.5155  96.5348 15.27574118 48752

JSON: /api/v1/satellites/66492 · /tle

For live sub-satellite position, see the globe view (requires WebGL).

§ Visibility from observer

Set your observer location to see the next 7 days of passes ≥ 10°. The values pass through the URL so the page stays shareable.

No JS? Fill the form by hand. The geolocation button needs JavaScript.